Location: Puketoi
(40.5833°S, 176.0167°E)
Time: 15:04:46
(UTC+00:00)

BREEZE-M (TANK) - Pass Details

Date: 08 February 2023
Orbit: 296 x 17375 km, 49.5° (Epoch: 22 March)

Event Time Altitude Azimuth Distance (km) Brightness Sun altitude
Exits shadow 14:05:29 47° 38° (NE) 1,654 4.6 -30.2°
Maximum altitude 14:06:19 49° 58° (ENE) 1,780 4.9 -30.1°
Drops below altitude 10° 14:25:47 10° 124° (SE) 8,760 9.4 -28.3°
Sets 14:40:10 0° 125° (SE) 13,007 10.6 -26.8°
